Salmon, ID

6:54 PM MDT on June 27, 2017 (GMT -0600)
Lemhi County

Weather History for KSMN - January, 2013

Change the Weather History Date:

Friday, January 11, 2013

  Actual Average Record
Temperature  
Mean Temperature 12 °F -  
Max Temperature 23 °F 25 °F 46 °F (2014)
Min Temperature 0 °F 12 °F -18 °F (1974)
Degree Days  
Heating Degree Days 53    
Moisture  
Dew Point 4 °F    
Average Humidity 57    
Maximum Humidity 86    
Minimum Humidity 42    
Precipitation  
Precipitation 0.00 in - - ()
Sea Level Pressure  
Sea Level Pressure 29.85 in    
Wind  
Wind Speed 9 mph (North)    
Max Wind Speed 22 mph    
Max Gust Speed 29 mph    
Visibility 10 miles    
Events      
Averages and records for this station are not official NWS values.
T = Trace of Precipitation, MM = Missing Value Source: NWS Daily Summary

Daily Weather History Graph

Daily Weather History Graph

Search for Another Location

Airport or City:

Trip Planner

Search our weather history database for the weather conditions in past years. The results will help you decide how hot, cold, wet, or windy it might be!

Date:

Astronomy

Jan. 11, 2013 Rise Set
Actual Time 8:12 AM MST 5:15 PM MST
Civil Twilight 7:39 AM MST 5:48 PM MST
Nautical Twilight 7:02 AM MST 6:25 PM MST
Astronomical Twilight 6:27 AM MST 7:00 PM MST
Moon 7:46 AM MST (1/11) 5:40 PM MST (1/11)
Length of Visible Light 10h 09m
Length of Day
9h 02m
Waning Crescent, 0% of the Moon is Illuminated
Jan 11
Waning Crescent
Jan 11
New
Jan 18
First Quarter
Jan 26
Full
Feb 3
Last Quarter

Hourly Weather History & Observations

Time (MST) Temp. Windchill Dew Point Humidity Pressure Visibility Wind Dir Wind Speed Gust Speed Precip Events Conditions
12:15 AM 21.2 °F - 17.6 °F 86% 29.62 in 10.0 mi Calm Calm - N/A   Overcast
12:35 AM 21.2 °F - 17.6 °F 86% 29.62 in 10.0 mi Calm Calm - N/A   Overcast
12:55 AM 23.0 °F - 19.4 °F 86% 29.63 in 10.0 mi Calm Calm - N/A   Overcast
1:15 AM 21.2 °F - 17.6 °F 86% 29.64 in 10.0 mi Calm Calm - N/A   Overcast
1:35 AM 23.0 °F 13.9 °F 17.6 °F 80% 29.65 in 10.0 mi North 8.1 mph - N/A   Overcast
1:55 AM 23.0 °F 15.8 °F 17.6 °F 80% 29.65 in 10.0 mi NNW 5.8 mph - N/A   Overcast
2:15 AM 23.0 °F 12.4 °F 14.0 °F 68% 29.66 in 10.0 mi North 10.4 mph - N/A   Overcast
2:35 AM 21.2 °F 9.5 °F 14.0 °F 74% 29.66 in 10.0 mi North 11.5 mph - N/A   Overcast
2:55 AM 21.2 °F 8.3 °F 12.2 °F 68% 29.67 in 10.0 mi North 13.8 mph 18.4 mph N/A   Overcast
3:15 AM 21.2 °F 7.3 °F 12.2 °F 68% 29.67 in 10.0 mi North 16.1 mph 21.9 mph N/A   Overcast
3:35 AM 21.2 °F 6.4 °F 10.4 °F 63% 29.67 in 10.0 mi North 18.4 mph 27.6 mph N/A   Overcast
3:55 AM 21.2 °F 5.6 °F 8.6 °F 58% 29.67 in 10.0 mi North 20.7 mph 26.5 mph N/A   Overcast
4:15 AM 21.2 °F 7.8 °F 8.6 °F 58% 29.67 in 10.0 mi North 15.0 mph 23.0 mph N/A   Overcast
4:35 AM 21.2 °F 6.8 °F 6.8 °F 54% 29.68 in 10.0 mi NNW 17.3 mph 25.3 mph N/A   Overcast
4:55 AM 19.4 °F 3.6 °F 6.8 °F 58% 29.68 in 10.0 mi NNW 19.6 mph 26.5 mph N/A   Overcast
5:35 AM 19.4 °F 5.5 °F 5.0 °F 54% 29.69 in 10.0 mi North 15.0 mph 21.9 mph N/A   Overcast
5:55 AM 19.4 °F 4.1 °F 5.0 °F 54% 29.69 in 10.0 mi North 18.4 mph 23.0 mph N/A   Overcast
6:15 AM 19.4 °F 2.8 °F 3.2 °F 49% 29.71 in 10.0 mi North 21.9 mph 28.8 mph N/A   Overcast
6:55 AM 17.6 °F 3.7 °F 5.0 °F 58% 29.73 in 10.0 mi North 13.8 mph 23.0 mph N/A   Overcast
7:15 AM 17.6 °F 2.7 °F 1.4 °F 49% 29.74 in 10.0 mi North 16.1 mph 20.7 mph N/A   Mostly Cloudy
7:35 AM 17.6 °F 5.7 °F 3.2 °F 53% 29.76 in 10.0 mi North 10.4 mph - N/A   Clear
7:55 AM 17.6 °F 3.7 °F 1.4 °F 49% 29.76 in 10.0 mi North 13.8 mph 19.6 mph N/A   Scattered Clouds
8:15 AM 17.6 °F 2.2 °F 1.4 °F 49% 29.77 in 10.0 mi North 17.3 mph 20.7 mph N/A   Mostly Cloudy
8:35 AM 17.6 °F 2.7 °F -0.4 °F 45% 29.78 in 10.0 mi North 16.1 mph 23.0 mph N/A   Overcast
8:55 AM 17.6 °F 3.7 °F -0.4 °F 45% 29.79 in 10.0 mi North 13.8 mph 19.6 mph N/A   Overcast
9:15 AM 17.6 °F 3.7 °F -0.4 °F 45% 29.80 in 10.0 mi North 13.8 mph 20.7 mph N/A   Overcast
9:35 AM 17.6 °F 4.3 °F -0.4 °F 45% 29.81 in 10.0 mi North 12.7 mph - N/A   Overcast
9:55 AM 17.6 °F 3.2 °F -0.4 °F 45% 29.82 in 10.0 mi North 15.0 mph 20.7 mph N/A   Overcast
10:15 AM 17.6 °F 3.2 °F -0.4 °F 45% 29.83 in 10.0 mi North 15.0 mph - N/A   Overcast
10:55 AM 17.6 °F 2.7 °F 1.4 °F 49% 29.85 in 10.0 mi North 16.1 mph 20.7 mph N/A   Overcast
11:35 AM 17.6 °F 3.7 °F -0.4 °F 45% 29.86 in 10.0 mi North 13.8 mph - N/A   Mostly Cloudy
11:55 AM 17.6 °F 2.7 °F 1.4 °F 49% 29.87 in 10.0 mi North 16.1 mph 21.9 mph N/A   Partly Cloudy
12:15 PM 17.6 °F 3.2 °F -0.4 °F 45% 29.87 in 10.0 mi North 15.0 mph - N/A   Scattered Clouds
12:35 PM 17.6 °F 2.2 °F -0.4 °F 45% 29.87 in 10.0 mi North 17.3 mph - N/A   Mostly Cloudy
1:15 PM 17.6 °F 5.7 °F 1.4 °F 49% 29.88 in 10.0 mi North 10.4 mph - N/A   Overcast
1:55 PM 17.6 °F 8.2 °F -0.4 °F 45% 29.89 in 10.0 mi North 6.9 mph - N/A   Overcast
2:15 PM 19.4 °F 12.8 °F -0.4 °F 42% 29.89 in 10.0 mi North 4.6 mph - N/A   Overcast
2:36 PM 19.4 °F 10.4 °F 1.4 °F 46% 29.91 in 10.0 mi North 6.9 mph - N/A   Overcast
2:55 PM 19.4 °F 9.5 °F 1.4 °F 46% 29.91 in 10.0 mi NNE 8.1 mph - N/A   Overcast
3:15 PM 19.4 °F 9.5 °F -0.4 °F 42% 29.92 in 10.0 mi North 8.1 mph - N/A   Overcast
3:35 PM 19.4 °F 7.2 °F -0.4 °F 42% 29.93 in 10.0 mi North 11.5 mph - N/A   Overcast
3:55 PM 19.4 °F 7.9 °F -0.4 °F 42% 29.94 in 10.0 mi North 10.4 mph 16.1 mph N/A   Overcast
4:15 PM 17.6 °F 4.3 °F -0.4 °F 45% 29.94 in 10.0 mi North 12.7 mph - N/A   Overcast
4:35 PM 19.4 °F 6.6 °F -0.4 °F 42% 29.95 in 10.0 mi North 12.7 mph 21.9 mph N/A   Overcast
4:55 PM 17.6 °F 4.3 °F 1.4 °F 49% 29.96 in 10.0 mi North 12.7 mph 20.7 mph N/A   Overcast
5:15 PM 17.6 °F 3.2 °F 1.4 °F 49% 29.97 in 10.0 mi NNE 15.0 mph - N/A   Overcast
5:35 PM 17.6 °F 3.2 °F 5.0 °F 58% 29.97 in 10.0 mi North 15.0 mph - N/A   Overcast
5:55 PM 15.8 °F 2.1 °F 6.8 °F 68% 29.98 in 10.0 mi NNE 12.7 mph - N/A   Overcast
6:15 PM 15.8 °F 1.4 °F 5.0 °F 62% 29.98 in 10.0 mi North 13.8 mph - N/A   Overcast
6:35 PM 15.8 °F 1.4 °F 1.4 °F 53% 29.99 in 10.0 mi NNE 13.8 mph - N/A   Overcast
6:55 PM 15.8 °F 0.9 °F 3.2 °F 58% 29.99 in 10.0 mi NNE 15.0 mph - N/A   Overcast
7:15 PM 14.0 °F -0.2 °F 1.4 °F 57% 30.00 in 10.0 mi NNE 12.7 mph - N/A   Partly Cloudy
7:55 PM 12.2 °F 1.7 °F 1.4 °F 62% 30.02 in 10.0 mi NE 6.9 mph - N/A   Scattered Clouds
8:15 PM 12.2 °F - -0.4 °F 57% 30.02 in 10.0 mi Calm Calm - N/A   Mostly Cloudy
8:35 PM 12.2 °F 4.3 °F 1.4 °F 62% 30.02 in 10.0 mi ENE 4.6 mph - N/A   Scattered Clouds
8:55 PM 10.4 °F 2.2 °F 1.4 °F 67% 30.02 in 10.0 mi ESE 4.6 mph - N/A   Clear
9:15 PM 8.6 °F - -2.2 °F 62% 30.02 in 10.0 mi Calm Calm - N/A   Clear
9:35 PM 8.6 °F 2.0 °F -0.4 °F 67% 30.03 in 10.0 mi SSW 3.5 mph - N/A   Clear
9:55 PM 8.6 °F 0.1 °F -0.4 °F 67% 30.04 in 10.0 mi SSE 4.6 mph - N/A   Clear
10:35 PM 6.8 °F -3.5 °F -5.8 °F 56% 30.05 in 10.0 mi SSE 5.8 mph - N/A   Clear
10:55 PM 3.2 °F -7.8 °F -4.0 °F 72% 30.05 in 10.0 mi SSE 5.8 mph - N/A   Clear
11:15 PM 3.2 °F - -4.0 °F 72% 30.06 in 10.0 mi Calm Calm - N/A   Clear
11:35 PM 1.4 °F - -7.6 °F 66% 30.06 in 10.0 mi Calm Calm - N/A   Clear
11:55 PM -0.4 °F - -7.6 °F 72% 30.06 in 10.0 mi Calm Calm - N/A   Scattered Clouds